Regional Weather Roundup
Issued by NWS Charleston, WV

Home | Current Version | Previous Version | Graphics & Text | Print | Product List | Glossary On
Versions: 1 2 3 4 5 6 7 8 9 10 11 12 13 14 15 16 17 18 19 20 21 22 23 24 25 26 27 28 29 30 31 32 33 34 35 36 37 38 39 40 41 42 43 44 45 46 47 48
000
ASUS41 KRLX 041810
RWRRLX
West Virginia Regional Weather Roundup
National Weather Service Charleston WV
200 PM EDT TUE AUG 04 2015

Note: "fair" indicates few or no clouds below 12,000 feet with no
significant weather and/or obstructions to visibility.

WVZ003-041900-
Northern Panhandle of West Virginia

CITY           SKY/WX    TMP DP  RH WIND       PRES   REMARKS
WHEELING       SUNNY     80  55  42 W7G17     29.98F
$$

WVZ009-041900-
Northwest West Virginia

CITY           SKY/WX    TMP DP  RH WIND       PRES   REMARKS
PARKERSBURG    MOSUNNY   84  59  42 VRB3      30.00F
$$

WVZ006-041900-
Western West Virginia

CITY           SKY/WX    TMP DP  RH WIND       PRES   REMARKS
HUNTINGTON     PTSUNNY   84  68  58 W8        29.99S
$$

WVZ015-041900-
West Central West Virginia

CITY           SKY/WX    TMP DP  RH WIND       PRES   REMARKS
CHARLESTON     PTSUNNY   83  66  56 W6        29.99F
$$

WVZ022-031-041900-
North Central West Virginia

CITY           SKY/WX    TMP DP  RH WIND       PRES   REMARKS
CLARKSBURG     PTSUNNY   84  63  49 W8        29.98F
MORGANTOWN     PTSUNNY   83  57  41 W9        30.00F
$$

WVZ025-035-042-045-041900-
Southern West Virginia

CITY           SKY/WX    TMP DP  RH WIND       PRES   REMARKS
BECKLEY        PTSUNNY   79  64  60 SW13G18   30.09F
LOGAN          PTSUNNY   82  70  65 SW8       30.01F
BLUEFIELD      PTSUNNY   81  63  54 W10G18    30.12F
LEWISBURG      MOSUNNY   83  63  51 SW12      30.06F
$$

WVZ047-041900-
Northern Mountains of West Virginia

CITY           SKY/WX    TMP DP  RH WIND       PRES   REMARKS
ELKINS         MOSUNNY   82  63  52 NW12G18   30.03F
$$

WVZ052-041900-
Eastern Panhandle of West Virginia

CITY           SKY/WX    TMP DP  RH WIND       PRES   REMARKS
MARTINSBURG    MOSUNNY   88  62  41 W9G18     29.94F
PETERSBURG     SUNNY     87  63  44 W8        29.96F
$$


USA.gov is the U.S. government's official web portal to all federal, state and local government web resources and services.